Time,TemperatureF,DewpointF,PressureIn,WindDirection,WindDirectionDegrees,WindSpeedMPH,WindSpeedGustMPH,Humidity,HourlyPrecipIn,Conditions,Clouds,dailyrainin,SolarRadiationWatts/m^2,SoftwareType,DateUTC
2013-07-02 00:00:00,57.0,52.0,-100.00,ESE,112,0.0,-999.0,85,-99.99,,,-99.99,1.160000,,2013-07-02 04:00:00,
2013-07-02 00:42:00,57.0,52.0,-100.00,ESE,112,0.0,-999.0,85,-99.99,,,-99.99,1.160000,,2013-07-02 04:42:00,
2013-07-02 00:54:00,57.0,52.0,-100.00,ESE,112,0.0,-999.0,85,-99.99,,,-99.99,1.160000,,2013-07-02 04:54:00,
2013-07-02 01:00:00,56.0,51.0,-100.00,ESE,112,1.0,-999.0,81,-99.99,,,-99.99,0.000000,,2013-07-02 05:00:00,
2013-07-02 01:43:00,56.0,51.0,-100.00,ESE,112,1.0,-999.0,81,-99.99,,,-99.99,0.000000,,2013-07-02 05:43:00,
2013-07-02 01:53:00,56.0,51.0,-100.00,ESE,112,1.0,-999.0,81,-99.99,,,-99.99,0.000000,,2013-07-02 05:53:00,
2013-07-02 02:00:00,57.0,51.0,-100.00,East,90,0.0,-999.0,81,-99.99,,,-99.99,0.000000,,2013-07-02 06:00:00,
2013-07-02 02:43:00,57.0,51.0,-100.00,East,90,0.0,-999.0,81,-99.99,,,-99.99,0.000000,,2013-07-02 06:43:00,
2013-07-02 02:53:00,57.0,51.0,-100.00,East,90,0.0,-999.0,81,-99.99,,,-99.99,0.000000,,2013-07-02 06:53:00,
2013-07-02 03:00:00,56.0,52.0,-100.00,ESE,112,0.0,-999.0,86,-99.99,,,-99.99,0.000000,,2013-07-02 07:00:00,
2013-07-02 03:44:00,56.0,52.0,-100.00,ESE,112,0.0,-999.0,86,-99.99,,,-99.99,0.000000,,2013-07-02 07:44:00,
2013-07-02 03:53:00,56.0,52.0,-100.00,ESE,112,0.0,-999.0,86,-99.99,,,-99.99,0.000000,,2013-07-02 07:53:00,
2013-07-02 04:00:00,57.0,53.0,-100.00,SSE,157,0.0,-999.0,86,-99.99,,,-99.99,0.000000,,2013-07-02 08:00:00,
2013-07-02 04:44:00,57.0,53.0,-100.00,SSE,157,0.0,-999.0,86,-99.99,,,-99.99,0.000000,,2013-07-02 08:44:00,
2013-07-02 04:53:00,57.0,53.0,-100.00,SSE,157,0.0,-999.0,86,-99.99,,,-99.99,0.000000,,2013-07-02 08:53:00,
2013-07-02 05:00:00,57.0,53.0,-100.00,ESE,112,0.0,-999.0,88,0.01,,,-99.99,0.000000,,2013-07-02 09:00:00,
2013-07-02 05:43:00,57.0,53.0,-100.00,ESE,112,0.0,-999.0,88,0.01,,,-99.99,0.000000,,2013-07-02 09:43:00,
2013-07-02 05:52:00,57.0,53.0,-100.00,ESE,112,0.0,-999.0,88,0.01,,,-99.99,0.000000,,2013-07-02 09:52:00,
2013-07-02 06:00:00,58.0,54.0,-100.00,South,180,0.0,-999.0,87,-99.99,,,-99.99,0.000000,,2013-07-02 10:00:00,
2013-07-02 06:52:00,58.0,54.0,-100.00,South,180,0.0,-999.0,87,-99.99,,,-99.99,0.000000,,2013-07-02 10:52:00,
2013-07-02 07:00:00,58.0,54.0,-100.00,South,180,0.0,-999.0,86,-99.99,,,-99.99,11.600000,,2013-07-02 11:00:00,
2013-07-02 07:42:00,58.0,54.0,-100.00,South,180,0.0,-999.0,86,-99.99,,,-99.99,11.600000,,2013-07-02 11:42:00,
2013-07-02 07:52:00,58.0,54.0,-100.00,South,180,0.0,-999.0,86,-99.99,,,-99.99,11.600000,,2013-07-02 11:52:00,
2013-07-02 08:00:00,59.0,55.0,-100.00,SE,135,1.0,-999.0,84,-99.99,,,-99.99,49.880001,,2013-07-02 12:00:00,
2013-07-02 08:43:00,59.0,55.0,-100.00,SE,135,1.0,-999.0,84,-99.99,,,-99.99,49.880001,,2013-07-02 12:43:00,
2013-07-02 08:52:00,59.0,55.0,-100.00,SE,135,1.0,-999.0,84,-99.99,,,-99.99,49.880001,,2013-07-02 12:52:00,
2013-07-02 09:00:00,61.0,54.0,-100.00,SE,135,1.0,-999.0,78,-99.99,,,-99.99,124.120003,,2013-07-02 13:00:00,
2013-07-02 09:43:00,61.0,54.0,-100.00,SE,135,1.0,-999.0,78,-99.99,,,-99.99,124.120003,,2013-07-02 13:43:00,
2013-07-02 09:52:00,61.0,54.0,-100.00,SE,135,1.0,-999.0,78,-99.99,,,-99.99,124.120003,,2013-07-02 13:52:00,
2013-07-02 10:00:00,64.0,55.0,-100.00,SE,135,2.0,-999.0,72,-99.99,,,-99.99,415.279999,,2013-07-02 14:00:00,
2013-07-02 10:43:00,64.0,55.0,-100.00,SE,135,2.0,-999.0,72,-99.99,,,-99.99,415.279999,,2013-07-02 14:43:00,
2013-07-02 10:53:00,64.0,55.0,-100.00,SE,135,2.0,-999.0,72,-99.99,,,-99.99,415.279999,,2013-07-02 14:53:00,
2013-07-02 11:00:00,65.0,56.0,-100.00,East,90,3.0,-999.0,71,-99.99,,,-99.99,330.600006,,2013-07-02 15:00:00,
2013-07-02 11:44:00,65.0,56.0,-100.00,East,90,3.0,-999.0,71,-99.99,,,-99.99,330.600006,,2013-07-02 15:44:00,
2013-07-02 11:53:00,65.0,56.0,-100.00,East,90,3.0,-999.0,71,-99.99,,,-99.99,330.600006,,2013-07-02 15:53:00,
2013-07-02 12:00:00,65.0,56.0,-100.00,ESE,112,2.0,-999.0,71,-99.99,,,-99.99,352.640015,,2013-07-02 16:00:00,
2013-07-02 12:43:00,65.0,56.0,-100.00,ESE,112,2.0,-999.0,71,-99.99,,,-99.99,352.640015,,2013-07-02 16:43:00,
2013-07-02 12:52:00,65.0,56.0,-100.00,ESE,112,2.0,-999.0,71,-99.99,,,-99.99,352.640015,,2013-07-02 16:52:00,
2013-07-02 13:00:00,67.0,57.0,-100.00,ESE,112,1.0,-999.0,69,-99.99,,,-99.99,443.119995,,2013-07-02 17:00:00,
2013-07-02 13:53:00,67.0,57.0,-100.00,ESE,112,1.0,-999.0,69,-99.99,,,-99.99,443.119995,,2013-07-02 17:53:00,
2013-07-02 14:00:00,69.0,58.0,-100.00,SE,135,1.0,-999.0,66,-99.99,,,-99.99,515.039978,,2013-07-02 18:00:00,
2013-07-02 14:43:00,69.0,58.0,-100.00,SE,135,1.0,-999.0,66,-99.99,,,-99.99,515.039978,,2013-07-02 18:43:00,
2013-07-02 14:53:00,69.0,58.0,-100.00,SE,135,1.0,-999.0,66,-99.99,,,-99.99,515.039978,,2013-07-02 18:53:00,
2013-07-02 15:00:00,71.0,58.0,-100.00,ESE,112,1.0,-999.0,64,-99.99,,,-99.99,501.119995,,2013-07-02 19:00:00,
2013-07-02 15:43:00,71.0,58.0,-100.00,ESE,112,1.0,-999.0,64,-99.99,,,-99.99,501.119995,,2013-07-02 19:43:00,
2013-07-02 15:53:00,71.0,58.0,-100.00,ESE,112,1.0,-999.0,64,-99.99,,,-99.99,501.119995,,2013-07-02 19:53:00,
2013-07-02 16:00:00,72.0,58.0,-100.00,East,90,2.0,-999.0,62,-99.99,,,-99.99,399.040009,,2013-07-02 20:00:00,
2013-07-02 16:43:00,72.0,58.0,-100.00,East,90,2.0,-999.0,62,-99.99,,,-99.99,399.040009,,2013-07-02 20:43:00,
2013-07-02 16:52:00,72.0,58.0,-100.00,East,90,2.0,-999.0,62,-99.99,,,-99.99,399.040009,,2013-07-02 20:52:00,
2013-07-02 17:00:00,72.0,58.0,-100.00,East,90,1.0,-999.0,62,-99.99,,,-99.99,229.679993,,2013-07-02 21:00:00,
2013-07-02 17:44:00,72.0,58.0,-100.00,East,90,1.0,-999.0,62,-99.99,,,-99.99,229.679993,,2013-07-02 21:44:00,
2013-07-02 17:52:00,72.0,58.0,-100.00,East,90,1.0,-999.0,62,-99.99,,,-99.99,229.679993,,2013-07-02 21:52:00,
2013-07-02 18:00:00,71.0,59.0,-100.00,East,90,1.0,-999.0,64,-99.99,,,-99.99,169.360001,,2013-07-02 22:00:00,
2013-07-02 18:43:00,71.0,59.0,-100.00,East,90,1.0,-999.0,64,-99.99,,,-99.99,169.360001,,2013-07-02 22:43:00,
2013-07-02 18:53:00,71.0,59.0,-100.00,East,90,1.0,-999.0,64,-99.99,,,-99.99,169.360001,,2013-07-02 22:53:00,
2013-07-02 19:00:00,70.0,59.0,-100.00,East,90,1.0,-999.0,67,-99.99,,,-99.99,126.440002,,2013-07-02 23:00:00,
2013-07-02 19:44:00,70.0,59.0,-100.00,East,90,1.0,-999.0,67,-99.99,,,-99.99,126.440002,,2013-07-02 23:44:00,
2013-07-02 19:52:00,70.0,59.0,-100.00,East,90,1.0,-999.0,67,-99.99,,,-99.99,126.440002,,2013-07-02 23:52:00,
2013-07-02 20:00:00,70.0,59.0,-100.00,East,90,3.0,-999.0,69,-99.99,,,-99.99,167.039993,,2013-07-03 00:00:00,
2013-07-02 20:44:00,70.0,59.0,-100.00,East,90,3.0,-999.0,69,-99.99,,,-99.99,167.039993,,2013-07-03 00:44:00,
2013-07-02 20:52:00,70.0,59.0,-100.00,East,90,3.0,-999.0,69,-99.99,,,-99.99,167.039993,,2013-07-03 00:52:00,
2013-07-02 21:00:00,68.0,58.0,-100.00,East,90,3.0,-999.0,71,-99.99,,,-99.99,41.759998,,2013-07-03 01:00:00,
2013-07-02 21:43:00,68.0,58.0,-100.00,East,90,3.0,-999.0,71,-99.99,,,-99.99,41.759998,,2013-07-03 01:43:00,
2013-07-02 21:59:00,68.0,58.0,-100.00,East,90,3.0,-999.0,71,-99.99,,,-99.99,41.759998,,2013-07-03 01:59:00,
2013-07-02 22:00:00,66.0,58.0,-100.00,ESE,112,1.0,-999.0,76,-99.99,,,-99.99,2.320000,,2013-07-03 02:00:00,
2013-07-02 23:00:00,64.0,58.0,-100.00,SE,135,1.0,-999.0,80,-99.99,,,-99.99,0.000000,,2013-07-03 03:00:00,
2013-07-02 23:49:00,64.0,58.0,-100.00,SE,135,1.0,-999.0,80,-99.99,,,-99.99,0.000000,,2013-07-03 03:49:00,